Location: Unspecified
(0.0000°N, 0.0000°E)
Time: 13:21:13
(UTC+01:00)

Cosmos 1340 - Visible Passes

Search period start: 26 February 2017 00:00
Search period end: 08 March 2017 00:00
Orbit: 506 x 511 km, 81.2° (Epoch: 25 February)

Date Brightness Start Highest point End Pass type
(mag) Time Alt. Az. Time Alt. Az. Time Alt. Az.
26 Feb 2.5 19:54:52 10° N 19:58:36 70° E 20:02:22 10° S visible
27 Feb 2.8 19:37:39 10° N 19:41:17 48° E 19:44:56 10° SSE visible
02 Mar 6.4 20:23:29 10° WNW 20:24:43 11° W 20:25:56 10° WSW visible
03 Mar 6.2 06:38:22 10° SE 06:40:41 16° E 06:43:00 10° ENE visible
03 Mar 6.1 20:05:04 10° WNW 20:07:22 16° W 20:09:41 10° SW visible
04 Mar 6.6 06:22:08 10° ESE 06:23:21 11° E 06:24:34 10° ENE visible
04 Mar 5.7 19:47:07 10° NW 19:50:02 21° W 19:52:58 10° SW visible
